Location: ČR
(50.0000°N, 15.0000°E)
Time: 17:38:19
(UTC+00:00)

O/OREOS (USA 219) - Pass Details

Date: 13 December 2021
Orbit: 621 x 646 km, 72.0° (Epoch: 22 May)

Event Time Altitude Azimuth Distance (km) Brightness Sun altitude
Rises 17:06:47 0° 336° (NNW) 2,959 ? -19.5°
Reaches altitude 10° 17:09:09 10° 342° (NNW) 2,048 ? -19.9°
Enters shadow 17:13:21 46° 46° (NE) 869 ? -20.5°
